Location: Unnamed
(51.4737°N, 0.0038°W)
Time: 05:25:27
(UTC+00:00)

ARIANE 6 FM1 Upper Stage - Visible Passes

Search period start: 18 January 2026 00:00
Search period end: 28 January 2026 00:00
Orbit: 522 x 610 km, 62.0° (Epoch: 17 January)

Date Brightness Start Highest point End Pass type
(mag) Time Alt. Az. Time Alt. Az. Time Alt. Az.
20 Jan 5.2 19:12:45 10° S 19:12:51 11° S 19:12:51 11° S visible
21 Jan 4.7 19:12:33 10° SSW 19:13:49 18° S 19:13:49 18° S visible
22 Jan 4.0 19:12:30 10° SSW 19:14:43 30° SSW 19:14:43 30° SSW visible
23 Jan 4.6 17:36:28 10° SE 17:38:14 13° ESE 17:39:27 11° E visible
23 Jan 3.3 19:12:34 10° SW 19:15:30 46° SSW 19:15:30 46° SSW visible
24 Jan 4.3 17:35:29 10° SSE 17:38:13 18° ESE 17:40:10 13° E visible
24 Jan 2.9 19:12:44 10° SW 19:16:12 63° WSW 19:16:12 63° WSW visible
25 Jan 3.9 17:34:57 10° S 17:38:15 24° ESE 17:40:47 14° ENE visible
25 Jan 3.0 19:12:59 10° WSW 19:16:49 59° NW 19:16:49 59° NW visible
26 Jan 3.5 17:34:37 10° S 17:38:18 33° SE 17:41:20 13° ENE visible
26 Jan 3.3 19:13:19 10° WSW 19:17:14 46° NW 19:17:22 46° NNW visible
27 Jan 3.0 17:34:29 10° SSW 17:38:22 46° SE 17:41:49 12° ENE visible
27 Jan 3.6 19:13:43 10° W 19:17:29 37° NNW 19:17:50 36° NNW visible
